GW3250 Weather Reports


time (UTC)temp
F
wind
direction
speed
knots
gust
knots
rain 1hr
in
rain 24hr
in
rain mn
in
humidity
%
barometer
mb
20260905220335 71 147 0.0 0.9 0.00 0.00 0.00 77 1009.9
20260905215834 71 165 0.0 0.9 0.00 0.00 0.00 77 1009.9
20260905215330 72 165 0.0 0.0 0.00 0.00 0.00 75 1009.9
20260905214826 72 140 0.0 0.9 0.00 0.00 0.00 73 1009.7
20260905214321 73 139 0.0 0.0 0.00 0.00 0.00 73 1009.8
20260905213816 74 182 0.9 1.7 0.00 0.00 0.00 71 1009.8
20260905213312 75 177 1.7 2.6 0.00 0.00 0.00 67 1009.8
20260905212807 74 162 0.9 0.9 0.00 0.00 0.00 72 1009.8
20260905212307 72 35 0.0 0.0 0.00 0.00 0.00 76 1010.1
20260905211801 72 172 0.0 0.0 0.00 0.00 0.00 76 1009.8
20260905211255 72 148 0.0 0.9 0.00 0.00 0.00 74 1009.8
20260905210753 73 168 0.9 1.7 0.00 0.00 0.00 72 1009.7
20260905210247 73 170 0.0 0.0 0.00 0.00 0.00 70 1009.8
20260905205746 73 170 0.9 0.9 0.00 0.00 0.00 73 1009.6
20260905205241 75 170 0.9 0.9 0.00 0.00 0.00 68 1009.6
20260905204740 75 41 1.7 1.7 0.00 0.00 0.00 68 1009.8
20260905204236 76 192 1.7 1.7 0.00 0.00 0.00 68 1009.6
20260905203735 74 175 0.9 0.9 0.00 0.00 0.00 70 1009.7
20260905203230 73 162 0.9 0.9 0.00 0.00 0.00 69 1009.5
20260905202725 74 140 0.9 0.9 0.00 0.00 0.00 70 1009.6
20260905202221 74 126 0.9 0.9 0.00 0.00 0.00 68 1009.5
20260905201716 72 139 0.0 0.0 0.00 0.00 0.00 73 1009.7
20260905201211 72 162 0.0 0.0 0.00 0.00 0.00 71 1009.6
20260905200706 73 147 0.0 0.0 0.00 0.00 0.00 71 1009.4
20260905200202 73 150 0.0 0.9 0.00 0.00 0.00 67 1009.4
20260905195700 73 153 0.0 0.0 0.00 0.00 0.00 69 1009.7
20260905195154 74 87 0.0 0.9 0.00 0.00 0.00 70 1009.5
20260905194650 74 215 0.9 1.7 0.00 0.00 0.00 70 1009.3
20260905194144 75 159 1.7 1.7 0.00 0.00 0.00 64 1009.5
20260905193638 75 68 1.7 1.7 0.00 0.00 0.00 64 1009.3
20260905193133 76 200 2.6 2.6 0.00 0.00 0.00 61 1009.3
20260905192629 77 202 1.7 1.7 0.00 0.00 0.00 60 1009.3
20260905192125 77 149 0.9 0.9 0.00 0.00 0.00 60 1009.5
20260905191624 77 184 0.9 1.7 0.00 0.00 0.00 59 1009.5
20260905191123 76 229 1.7 2.6 0.00 0.00 0.00 65 1009.6
20260905190621 76 183 0.9 1.7 0.00 0.00 0.00 64 1009.7
20260905190120 76 206 1.7 1.7 0.00 0.00 0.00 62 1009.7
20260905185619 77 132 0.9 1.7 0.00 0.00 0.00 61 1009.7
20260905185114 77 242 0.9 0.9 0.00 0.00 0.00 69 1009.8
20260905184609 76 105 0.0 0.9 0.00 0.00 0.00 71 1009.7
20260905184108 76 87 2.6 3.5 0.00 0.00 0.00 63 1009.5
20260905183607 77 89 0.9 0.9 0.00 0.00 0.00 66 1009.6
20260905183103 75 60 0.9 0.9 0.00 0.00 0.00 68 1009.5
20260905182602 75 108 0.9 0.9 0.00 0.00 0.00 66 1009.5
20260905182057 73 216 1.7 2.6 0.00 0.00 0.00 70 1009.8
20260905181557 75 172 1.7 2.6 0.00 0.00 0.00 69 1009.6
20260905181056 75 155 0.9 1.7 0.00 0.00 0.00 69 1009.6
20260905180551 75 190 0.9 1.7 0.00 0.00 0.00 68 1009.8
20260905180046 75 136 0.9 1.7 0.00 0.00 0.00 72 1009.9
20260905175545 73 126 0.9 0.9 0.00 0.00 0.00 72 1009.6
20260905175041 74 197 0.9 1.7 0.00 0.00 0.00 71 1009.7
20260905174536 74 56 0.0 0.9 0.00 0.00 0.00 69 1010.1
20260905174032 75 67 0.9 0.9 0.00 0.00 0.00 66 1009.8
20260905173528 76 246 1.7 1.7 0.00 0.00 0.00 63 1009.8
20260905173023 75 182 0.9 1.7 0.00 0.00 0.00 69 1009.8
20260905172521 74 215 1.7 1.7 0.00 0.00 0.00 70 1009.9
20260905172017 73 161 0.9 0.9 0.00 0.00 0.00 75 1009.9
20260905171513 73 166 1.7 1.7 0.00 0.00 0.00 71 1009.9
20260905171009 73 281 0.9 0.9 0.00 0.00 0.00 73 1009.9
20260905170506 74 63 1.7 2.6 0.00 0.00 0.00 71 1010.1
20260905170000 75 86 0.9 1.7 0.00 0.00 0.00 72 1009.9
20260905165455 74 126 0.9 0.9 0.00 0.00 0.00 70 1010.4
20260905164949 74 100 0.0 0.9 0.00 0.00 0.00 74 1010.2
20260905164444 73 119 1.7 1.7 0.00 0.00 0.00 74 1010.3
20260905163938 73 62 1.7 1.7 0.00 0.00 0.00 73 1009.9
20260905163435 74 209 0.9 0.9 0.00 0.00 0.00 76 1010.4
20260905162931 75 185 1.7 2.6 0.00 0.00 0.00 72 1010.1
20260905162426 73 115 0.9 1.7 0.00 0.00 0.00 73 1010.2
20260905161921 70 96 0.0 0.9 0.00 0.00 0.00 76 1010.4
20260905161420 71 131 0.9 1.7 0.00 0.00 0.00 76 1010.4
20260905160918 73 182 0.9 1.7 0.00 0.00 0.00 75 1010.5
20260905160412 73 197 0.9 0.9 0.00 0.00 0.00 77 1010.3
20260905155906 70 87 0.9 0.9 0.00 0.00 0.00 80 1010.3
20260905155401 71 204 0.9 1.7 0.00 0.00 0.00 75 1010.4
20260905154900 71 189 2.6 5.2 0.00 0.00 0.00 78 1010.3
20260905154355 74 176 0.9 1.7 0.00 0.00 0.00 76 1010.3
20260905153851 71 187 0.9 2.6 0.00 0.00 0.00 76 1010.3
20260905153347 74 140 2.6 3.5 0.00 0.00 0.00 75 1010.4
20260905152847 72 123 0.9 0.9 0.00 0.00 0.00 76 1010.2
20260905152346 73 60 0.9 1.7 0.00 0.00 0.00 74 1010.5
20260905151841 73 103 1.7 1.7 0.00 0.00 0.00 72 1010.5
20260905151337 72 145 0.9 1.7 0.00 0.00 0.00 76 1010.6
20260905150837 71 213 0.0 0.0 0.00 0.00 0.00 82 1010.4
20260905150331 71 82 0.0 0.9 0.00 0.00 0.00 78 1010.4
20260905145828 73 153 0.9 0.9 0.00 0.00 0.00 78 1010.4
20260905145323 70 168 0.9 0.9 0.00 0.00 0.00 82 1010.5
20260905144822 70 202 0.0 0.9 0.00 0.00 0.00 83 1010.5
20260905144318 71 188 0.9 1.7 0.00 0.00 0.00 79 1010.6
20260905143816 72 202 0.9 1.7 0.00 0.00 0.00 83 1010.8
20260905143311 69 200 0.9 0.9 0.00 0.00 0.00 80 1010.5
20260905142810 69 200 0.0 0.9 0.00 0.00 0.00 82 1010.6
20260905142306 70 204 1.7 1.7 0.00 0.00 0.00 84 1010.5
20260905141800 68 167 0.9 0.9 0.00 0.00 0.00 82 1010.6
20260905141255 68 168 0.0 0.9 0.00 0.00 0.00 86 1010.6
20260905140751 69 167 1.7 3.5 0.00 0.00 0.00 84 1010.5
20260905140251 68 182 2.6 2.6 0.00 0.00 0.00 83 1010.8
20260905135749 67 100 0.9 0.9 0.00 0.00 0.00 86 1010.7
20260905135245 69 78 0.0 0.0 0.00 0.00 0.00 85 1010.6
20260905134744 68 110 1.7 1.7 0.00 0.00 0.00 83 1010.5
20260905134239 67 106 0.9 1.7 0.00 0.00 0.00 87 1010.5
20260905133734 68 207 0.9 0.9 0.00 0.00 0.00 88 1010.2
20260905133229 68 207 0.9 0.9 0.00 0.00 0.00 87 1010.5
20260905132728 68 135 0.9 0.9 0.00 0.00 0.00 88 1010.4
20260905132224 66 188 0.9 1.7 0.00 0.00 0.00 90 1010.4
20260905131719 66 185 1.7 1.7 0.00 0.00 0.00 91 1010.5
20260905131214 66 120 1.7 2.6 0.00 0.00 0.00 89 1010.6
20260905130713 65 194 1.7 1.7 0.00 0.00 0.00 92 1010.6
20260905130208 64 175 0.9 0.9 0.00 0.00 0.00 96 1010.7
20260905125703 62 203 0.9 0.9 0.00 0.00 0.00 99 1010.7
20260905125158 62 183 0.9 0.9 0.00 0.00 0.00 99 1010.7
20260905124654 61 194 0.0 0.0 0.00 0.00 0.00 99 1010.7
20260905124150 60 194 0.0 0.9 0.00 0.00 0.00 99 1010.9
20260905123645 60 195 0.9 0.9 0.00 0.00 0.00 99 1011.1
20260905123142 59 199 0.9 0.9 0.00 0.00 0.00 99 1011.0
20260905122641 59 199 0.9 0.9 0.00 0.00 0.00 99 1011.1
20260905122136 59 199 1.7 1.7 0.00 0.00 0.00 99 1010.9
20260905121631 59 199 1.7 1.7 0.00 0.00 0.00 99 1011.0
20260905121127 58 199 1.7 1.7 0.00 0.00 0.00 99 1011.0
20260905120625 58 198 0.9 0.9 0.00 0.00 0.00 99 1010.8
20260905120121 58 199 0.9 1.7 0.00 0.00 0.00 99 1010.6
20260905115620 58 199 0.9 1.7 0.00 0.00 0.00 99 1010.8
20260905115115 58 199 1.7 1.7 0.00 0.00 0.00 99 1010.8
20260905114614 58 199 0.9 1.7 0.00 0.00 0.00 99 1010.7
20260905114113 58 198 0.9 0.9 0.00 0.00 0.00 99 1010.9
20260905113608 58 198 0.0 0.0 0.00 0.00 0.00 99 1010.8
20260905113104 57 198 0.9 0.9 0.00 0.00 0.00 99 1010.9
20260905112558 57 198 0.0 0.0 0.00 0.00 0.00 99 1010.7
20260905112054 57 198 0.0 0.0 0.00 0.00 0.00 99 1010.4
20260905111549 57 198 0.0 0.9 0.00 0.00 0.00 99 1010.4
20260905111048 57 198 0.0 0.0 0.00 0.00 0.00 99 1010.4
20260905110547 57 198 0.9 0.9 0.00 0.00 0.00 99 1010.2
20260905110043 57 198 0.0 0.0 0.00 0.00 0.00 99 1010.1
20260905105542 57 197 0.0 0.9 0.00 0.00 0.00 99 1009.8
20260905105042 57 197 0.0 0.0 0.00 0.00 0.00 99 1009.7
20260905104538 57 197 0.0 0.0 0.00 0.00 0.00 99 1009.7
20260905104037 57 197 0.0 0.9 0.00 0.00 0.00 99 1009.8
20260905103533 58 197 0.0 0.9 0.00 0.00 0.00 99 1009.7
20260905103029 58 197 0.9 0.9 0.00 0.00 0.00 99 1009.7
20260905102524 58 197 0.0 0.0 0.00 0.00 0.00 99 1009.5
20260905102020 58 197 0.0 0.9 0.00 0.00 0.00 99 1009.7
20260905101518 58 197 0.9 0.9 0.00 0.00 0.00 99 1009.3
20260905101017 58 197 0.9 0.9 0.00 0.00 0.00 99 1009.5
20260905100514 58 197 0.9 0.9 0.00 0.00 0.00 99 1009.4
20260905100008 58 197 0.0 0.0 0.00 0.00 0.00 99 1009.4
20260905095503 58 198 0.9 0.9 0.00 0.00 0.00 99 1009.3
20260905094957 58 181 0.0 0.9 0.00 0.00 0.00 99 1009.4
20260905094453 58 178 0.9 0.9 0.00 0.00 0.00 99 1009.3
20260905093951 58 176 0.9 0.9 0.00 0.00 0.00 99 1009.4
20260905093447 58 176 0.9 0.9 0.00 0.00 0.00 99 1009.3
20260905092942 58 166 0.0 0.0 0.00 0.00 0.00 99 1009.2
20260905092438 58 166 0.0 0.0 0.00 0.00 0.00 99 1009.3
20260905091932 58 166 0.0 0.9 0.00 0.00 0.00 99 1009.2
20260905091427 58 166 0.0 0.0 0.00 0.00 0.00 99 1009.3
20260905090926 58 166 0.9 0.9 0.00 0.00 0.00 99 1009.4
20260905090422 59 166 0.0 0.0 0.00 0.00 0.00 99 1009.2
20260905085921 59 166 0.0 0.0 0.00 0.00 0.00 99 1009.4
20260905085420 59 164 0.0 0.0 0.00 0.00 0.00 99 1009.4
20260905084917 59 164 0.0 0.0 0.00 0.00 0.00 99 1009.5
20260905084415 59 164 0.0 0.0 0.00 0.00 0.00 99 1009.4
20260905083910 59 164 0.9 0.9 0.00 0.00 0.00 99 1009.3
20260905083407 59 164 0.0 0.0 0.00 0.00 0.00 99 1009.4
20260905082902 59 165 0.9 0.9 0.00 0.00 0.00 99 1009.3
20260905082358 59 165 0.0 0.0 0.00 0.00 0.00 99 1009.4
20260905081853 59 165 0.9 0.9 0.00 0.00 0.00 99 1009.5
20260905081348 59 165 0.0 0.0 0.00 0.00 0.00 99 1009.3
20260905080846 59 165 0.0 0.9 0.00 0.00 0.00 99 1009.5
20260905080341 59 165 0.0 0.9 0.00 0.00 0.00 99 1009.5
20260905075839 59 165 0.0 0.0 0.00 0.00 0.00 99 1009.3
20260905075334 60 165 0.9 0.9 0.00 0.00 0.00 99 1009.2
20260905074833 60 165 0.0 0.0 0.00 0.00 0.00 99 1009.3
20260905074329 60 165 0.0 0.0 0.00 0.00 0.00 99 1009.4
20260905073824 60 165 0.9 0.9 0.00 0.00 0.00 99 1009.4
20260905073319 60 165 0.9 0.9 0.00 0.00 0.00 99 1009.2
20260905072814 60 165 0.9 0.9 0.00 0.00 0.00 99 1009.5
20260905072309 60 165 0.9 0.9 0.00 0.00 0.00 99 1009.5
20260905071806 60 165 0.0 0.9 0.00 0.00 0.00 99 1009.5
20260905071302 60 165 0.0 0.9 0.00 0.00 0.00 99 1009.6
20260905070756 61 165 0.0 0.9 0.00 0.00 0.00 99 1009.6
20260905070252 61 165 0.0 0.9 0.00 0.00 0.00 99 1009.6
20260905065751 61 165 0.0 0.9 0.00 0.00 0.00 99 1009.7
20260905065244 61 165 0.0 0.0 0.00 0.00 0.00 99 1009.9
20260905064740 61 165 0.0 0.9 0.00 0.00 0.00 99 1010.1
20260905064235 62 165 0.0 0.9 0.00 0.00 0.00 99 1009.7
20260905063728 62 165 0.0 0.0 0.00 0.00 0.00 98 1009.8
20260905063224 62 165 0.9 0.9 0.00 0.00 0.00 98 1009.7
20260905062720 62 165 0.0 0.0 0.00 0.00 0.00 99 1009.7
20260905062219 62 165 0.0 0.0 0.00 0.00 0.00 98 1009.9
20260905061714 62 165 0.0 0.9 0.00 0.00 0.00 98 1010.1
20260905061209 62 165 0.0 0.9 0.00 0.00 0.00 98 1009.9
20260905060704 62 165 0.9 1.7 0.00 0.00 0.00 98 1009.9
20260905060201 62 165 0.0 0.0 0.00 0.00 0.00 99 1010.3
20260905055659 62 165 0.9 0.9 0.00 0.00 0.00 99 1010.3
20260905055154 62 165 0.0 0.9 0.00 0.00 0.00 99 1010.2
20260905054649 62 165 0.0 0.0 0.00 0.00 0.00 99 1010.2
20260905054145 63 165 0.0 0.9 0.00 0.00 0.00 99 1010.2
20260905053645 63 165 0.0 0.0 0.00 0.00 0.00 99 1010.3
20260905053140 63 165 0.0 0.0 0.00 0.00 0.00 99 1010.4
20260905052639 63 165 0.0 0.0 0.00 0.00 0.00 99 1010.5
20260905052134 63 165 0.0 0.0 0.00 0.00 0.00 99 1010.6
20260905051629 63 165 0.9 0.9 0.00 0.00 0.00 99 1010.7
20260905051126 63 165 0.0 0.0 0.00 0.00 0.00 99 1010.6
20260905050622 63 165 0.0 0.9 0.00 0.00 0.00 99 1010.6
20260905050119 63 165 0.0 0.9 0.00 0.00 0.00 99 1010.7
20260905045618 63 165 0.0 0.0 0.00 0.00 0.00 99 1010.6
20260905045114 63 165 0.0 0.0 0.00 0.00 0.00 99 1010.4
20260905044613 63 165 0.0 0.0 0.00 0.00 0.00 99 1010.7
20260905044108 63 165 0.0 0.0 0.00 0.00 0.00 99 1010.7
20260905043607 63 165 0.0 0.0 0.00 0.00 0.00 98 1010.8
20260905043103 63 165 0.0 0.0 0.00 0.00 0.00 98 1010.8
20260905042601 64 165 0.0 0.0 0.00 0.00 0.00 98 1011.0
20260905042056 64 165 0.0 0.0 0.00 0.00 0.00 98 1010.9
20260905041552 64 165 0.0 0.0 0.00 0.00 0.00 98 1010.7
20260905041047 64 165 0.0 0.0 0.00 0.00 0.00 98 1010.9
20260905040547 64 165 0.0 0.0 0.00 0.00 0.00 98 1010.7
20260905040045 64 165 0.0 0.0 0.00 0.00 0.00 98 1010.8
20260905035541 63 165 0.0 0.0 0.00 0.32 0.32 98 1010.6
20260905035038 64 165 0.0 0.0 0.00 0.32 0.32 97 1010.4
20260905034533 64 165 0.0 0.0 0.00 0.32 0.32 97 1010.8
20260905034033 64 165 0.0 0.0 0.00 0.32 0.32 97 1010.7
20260905033526 64 165 0.0 0.0 0.00 0.32 0.32 97 1010.8
20260905033023 64 165 0.0 0.0 0.00 0.32 0.32 97 1010.9
20260905032517 64 165 0.0 0.0 0.00 0.32 0.32 97 1010.8
20260905032012 64 165 0.0 0.0 0.00 0.32 0.32 96 1010.7
20260905031508 64 165 0.0 0.0 0.00 0.32 0.32 96 1010.7
20260905031003 64 165 0.0 0.0 0.00 0.32 0.32 96 1010.5
20260905030458 64 165 0.0 0.0 0.00 0.32 0.32 96 1010.7
20260905025956 64 165 0.0 0.0 0.00 0.32 0.32 95 1010.5
20260905025452 64 165 0.0 0.0 0.00 0.32 0.32 95 1010.7
20260905024944 64 165 0.0 0.0 0.00 0.32 0.32 95 1010.6
20260905024444 65 165 0.0 0.0 0.00 0.32 0.32 95 1010.9
20260905023939 64 165 0.0 0.0 0.00 0.32 0.32 94 1010.7
20260905023434 65 165 0.0 0.0 0.00 0.32 0.32 94 1010.8
20260905022933 65 165 0.0 0.0 0.00 0.32 0.32 94 1011.0
20260905022428 65 165 0.0 0.0 0.00 0.32 0.32 94 1010.9
20260905021923 65 165 0.0 0.0 0.00 0.32 0.32 94 1010.9
20260905021418 65 165 0.0 0.0 0.00 0.32 0.32 94 1010.8
20260905020913 65 165 0.0 0.0 0.00 0.32 0.32 94 1010.9
20260905020412 65 165 0.0 0.0 0.00 0.32 0.32 94 1010.8
20260905015912 66 165 0.0 0.0 0.00 0.32 0.32 95 1011.0
20260905015410 65 165 0.0 0.9 0.00 0.32 0.32 91 1010.7
20260905014910 65 165 0.0 0.0 0.00 0.32 0.32 92 1010.6
20260905014405 65 164 0.0 0.0 0.00 0.32 0.32 93 1010.7
20260905013900 65 164 0.0 0.0 0.00 0.32 0.32 93 1010.8
20260905013357 65 164 0.0 0.0 0.00 0.32 0.32 94 1010.9
20260905012852 65 164 0.0 0.0 0.00 0.32 0.32 93 1010.7
20260905012347 65 164 0.0 0.0 0.00 0.32 0.32 93 1010.6
20260905011844 65 164 0.0 0.0 0.00 0.32 0.32 92 1011.0
20260905011339 65 165 0.0 0.0 0.00 0.32 0.32 92 1010.5
20260905010835 65 165 0.0 0.0 0.00 0.32 0.32 92 1010.7
20260905010330 65 165 0.0 0.0 0.00 0.32 0.32 92 1010.7
20260905005826 65 165 0.0 0.0 0.00 0.32 0.32 92 1010.5
20260905005322 65 164 0.0 0.0 0.00 0.32 0.32 91 1011.0
20260905004816 65 165 0.0 0.9 0.00 0.32 0.32 91 1010.7
20260905004311 65 165 0.0 0.0 0.00 0.32 0.32 91 1010.9
20260905003806 65 164 0.0 0.9 0.00 0.32 0.32 91 1010.7
20260905003302 65 165 0.0 0.9 0.00 0.32 0.32 90 1010.7
20260905002757 65 165 0.0 0.0 0.00 0.32 0.32 89 1010.7
20260905002251 65 165 0.0 0.0 0.00 0.32 0.32 89 1010.6
20260905001746 66 165 0.0 0.0 0.00 0.32 0.32 89 1010.6
20260905001246 66 165 0.0 0.0 0.00 0.32 0.32 90 1010.5
20260905000742 66 164 0.0 0.0 0.00 0.32 0.32 90 1010.5
20260905000237 66 164 0.0 0.0 0.00 0.32 0.32 89 1010.4
20260904235732 66 164 0.0 0.0 0.00 0.32 0.32 87 1010.3
20260904235226 67 164 0.0 0.0 0.00 0.32 0.32 86 1010.1
20260904234721 68 164 0.0 0.0 0.00 0.32 0.32 85 1010.3
20260904234217 68 165 0.0 0.0 0.00 0.32 0.32 83 1010.5
20260904233712 68 164 0.0 0.9 0.00 0.32 0.32 83 1010.2
20260904233209 69 164 0.0 0.0 0.00 0.32 0.32 82 1010.2
20260904232705 69 164 0.9 0.9 0.00 0.32 0.32 82 1010.2
20260904232201 69 164 0.0 0.9 0.00 0.32 0.32 80 1010.4
20260904231656 70 176 0.0 0.9 0.00 0.32 0.32 80 1010.4
20260904231151 70 175 0.0 0.9 0.00 0.32 0.32 80 1010.3
20260904230651 70 188 0.0 0.9 0.00 0.32 0.32 80 1010.3
20260904230146 70 148 0.0 0.9 0.00 0.32 0.32 80 1010.3
20260904225644 71 340 0.0 0.0 0.00 0.32 0.32 80 1010.1
20260904225139 71 340 0.9 0.9 0.00 0.32 0.32 79 1010.4
20260904224633 71 181 0.0 0.0 0.00 0.32 0.32 80 1010.4
20260904224128 72 174 0.0 0.9 0.00 0.32 0.32 81 1010.4
20260904223627 72 174 0.0 0.0 0.00 0.32 0.32 80 1010.2
20260904223122 73 169 0.0 0.9 0.00 0.32 0.32 80 1010.4
20260904222619 73 165 0.0 0.0 0.00 0.32 0.32 79 1010.3
20260904222113 73 179 0.0 0.9 0.00 0.32 0.32 78 1010.5
20260904221608 73 172 0.0 0.0 0.00 0.32 0.32 80 1010.5
20260904221107 73 172 0.9 0.9 0.00 0.32 0.32 80 1010.4
20260904220603 74 178 0.0 0.0 0.00 0.32 0.32 77 1010.2